Location: Williams Lake
(52.1170°N, 122.1500°W)
Time: 11:21:56
(UTC-07:00)

Daily predictions for brighter satellites

Satellite Brightness Start Highest point End
(mag) Time Altitude Azimuth Time Altitude Azimuth Time Altitude Azimuth
FENGYUN 3A 3.7 19:28:20 10° SSE 19:33:43 87° ENE 19:39:08 10° NNW
Thor Agena Rocket 3.9 19:29:04 10° NNE 19:34:08 45° E 19:39:08 10° S
Cosmos 2181 Rocket 4.0 19:28:33 10° N 19:34:50 82° E 19:40:59 10° SSE
Cosmos 1570 Rocket 4.3 19:29:51 10° SSW 19:35:04 75° WNW 19:40:22 10° NNE
Cosmos 332 Rocket 3.8 19:31:18 10° SSW 19:36:11 79° ESE 19:41:04 10° NNE
Cosmos 2369 Rocket 4.3 19:32:05 10° NW 19:37:02 32° WSW 19:41:55 10° SSW
USA 267 3.6 19:31:58 10° ENE 19:38:29 71° NNW 19:45:00 10° W
COSMOS 2406 4.3 19:35:57 10° SSE 19:40:15 22° ESE 19:44:34 10° NE
Cosmos 371 Rocket 3.3 19:36:07 10° SSW 19:40:59 75° ESE 19:45:54 10° NNE
NOAA 12 4.5 19:36:32 10° S 19:41:46 71° WSW 19:47:04 10° NNW
Cosmos 2208 Rocket 4.4 19:36:35 10° SSW 19:42:02 74° WNW 19:47:30 10° NNE
Cosmos 1726 Rocket 3.6 19:37:50 10° S 19:42:07 60° E 19:46:24 10° NNE
DMSP B5D1-3 4.5 19:38:17 10° NNE 19:43:24 70° ESE 19:48:29 10° S
Cosmos 1378 3.1 19:39:40 10° N 19:43:29 86° E 19:47:16 10° S
Cosmos 2292 Rocket 4.0 19:42:40 10° SSW 19:45:35 44° WNW 19:48:29 10° N
MOS 1-B Rocket 4.4 19:40:16 10° SE 19:45:41 38° ENE 19:50:49 10° N
BREEZE-M DEB (TANK) 3.3 19:43:05 10° WSW 19:46:19 67° S 19:56:42 10° E
Cosmos 1674 4.3 19:44:23 10° NNE 19:46:51 16° ENE 19:49:14 10° ESE
SL-16 R/B 4.3 19:42:51 10° W 19:47:33 26° NW 19:52:16 10° NNE
Spot 2 Rocket 4.1 19:44:18 10° SE 19:48:54 37° ENE 19:53:30 10° N
FengYun 1-2 T 4.2 19:43:39 10° SSE 19:49:15 79° ENE 19:54:49 10° NNW
Cosmos 1544 4.3 19:47:22 10° SE 19:50:07 21° E 19:52:54 10° NE
Resurs 1-3 4.3 19:46:10 10° SE 19:50:09 35° ENE 19:54:09 10° N
Cosmos 1271 Rocket 2.9 19:48:01 10° SSW 19:51:48 76° WNW 19:55:41 10° N
In-Cosmos 22 4.4 19:48:11 10° N 19:53:45 56° ENE 19:59:23 10° SSE
Cosmos 2084 4.0 19:51:05 10° S 19:54:40 32° SE 19:58:08 10° ENE
Cosmos 1939 Rocket 4.2 19:51:56 10° ESE 19:54:51 21° ENE 19:57:53 10° NNE
Cosmos 1340 Rocket 4.0 19:51:18 10° NNW 19:55:14 48° W 19:59:10 10° S
Cosmos 2074 Rocket 4.2 19:50:17 10° SSE 19:56:11 48° E 20:02:07 10° NNE
Cosmos 1356 4.3 19:56:31 10° N 19:59:40 30° ENE 20:02:41 11° SE
Cosmos 1814 Rocket 3.9 19:58:24 10° SSW 20:03:33 73° ESE 20:08:40 10° NNE
Cosmos 1709 Rocket 4.3 19:57:46 10° SSW 20:04:08 75° W 20:10:34 10° N
Cosmos 1943 3.9 20:00:40 10° SW 20:06:17 61° NW 20:11:59 10° NNE
Cosmos 1125 Rocket 3.5 20:01:06 10° NNW 20:06:24 69° ENE 20:11:42 10° SE
Cosmos 1805 4.3 20:04:38 10° SE 20:07:50 24° E 20:11:02 10° NE
GP-B 3.7 20:06:31 10° NNE 20:10:38 35° E 20:14:42 10° SSE
Cosmos 2228 2.9 20:06:34 10° S 20:10:55 78° E 20:15:16 10° NNE
Resurs 01 Rocket 1.7 20:07:15 10° SSE 20:11:34 57° ENE 20:15:56 10° N
CZ-2D R/B 3.2 20:10:09 10° SSE 20:13:56 69° ENE 20:17:46 10° N
ERS-1 Rocket 4.5 20:11:52 14° E 20:14:16 19° NE 20:17:47 10° N
Cosmos 372 Rocket 4.0 20:09:54 10° NNW 20:15:11 72° ENE 20:20:25 10° SSE
USA 186 1.7 20:14:11 23° ESE 20:15:12 34° ENE 20:17:24 10° N
Nadezhda 3 Rocket 4.2 20:11:55 10° N 20:18:08 54° ENE 20:24:15 10° SSE
Cosmos 1812 Rocket 4.1 20:16:53 10° SSE 20:20:59 37° E 20:25:06 10° NNE
Envisat 3.1 20:16:06 10° SSE 20:21:05 58° ENE 20:26:05 10° N
Cosmos 389 Rocket 4.2 20:20:49 10° SW 20:24:06 37° WNW 20:27:22 10° N
Cosmos 2278 4.2 20:18:59 10° NNW 20:24:24 43° NE 20:28:03 19° ESE
Cosmos 2058 Rocket 3.3 20:21:06 10° SSW 20:25:28 72° WNW 20:29:53 10° N
Cosmos 304 Rocket 3.7 20:21:56 10° SSW 20:26:42 69° ESE 20:31:31 10° NNE
Cosmos 1356 Rocket 4.2 20:22:52 10° NNW 20:27:05 56° W 20:31:18 10° S
Meteor 2-8 Rocket 4.4 20:24:17 10° N 20:30:30 87° E 20:36:37 10° S
Meteor 1-24 Rocket 4.2 20:25:39 10° NNW 20:31:39 71° W 20:37:27 10° S
H-2A R/B 3.7 20:30:21 14° ENE 20:31:49 16° NE 20:34:51 10° NNE
SJ-6B 4.0 20:28:10 10° S 20:32:01 45° W 20:35:48 10° NNW
Cosmos 2184 Rocket 4.0 20:26:34 10° S 20:32:53 82° E 20:39:18 10° NNE
Cosmos 1953 3.2 20:34:07 25° ESE 20:35:15 29° E 20:38:47 10° NNE
Cosmos 2322 Rocket 4.2 20:34:14 10° NNW 20:37:39 16° NNE 20:40:59 10° ENE
Okean 3 Rocket 4.0 20:34:10 10° N 20:38:30 44° ENE 20:40:41 25° SE
Cosmos 1610 Rocket 4.5 20:33:26 10° S 20:39:44 68° E 20:46:06 10° NNE
Cosmos 841 Rocket 3.5 20:35:37 10° SSW 20:40:46 87° WNW 20:45:57 10° NNE
BREEZE-M DEB (TANK) 2.3 20:41:57 10° W 20:43:55 27° SSW 20:43:55 27° SSW
ATLAS 2AS CENTAUR R/B 3.2 20:37:15 10° NW 20:45:22 65° NE 20:50:24 24° ESE
Cosmos 2360 Rocket 4.4 20:44:04 10° N 20:46:29 13° NNE 20:48:53 10° NE
Meteor 2-19 Rocket 4.3 20:42:59 10° S 20:48:58 68° E 20:55:00 10° NNE
Cosmos 1697 Rocket 3.3 20:43:44 10° NNW 20:49:06 40° NE 20:51:34 27° E
Cosmos 1980 Rocket 3.3 20:44:58 10° NNW 20:49:54 29° NE 20:52:11 22° E
BREEZE M DEB (TANK) 2.1 20:45:09 10° WSW 20:50:26 55° S 20:51:01 44° SE
SL-14 R/B 4.3 20:48:17 10° N 20:51:37 27° ENE 20:51:37 27° ENE
Cosmos 1656 3.9 20:48:34 10° NNW 20:54:12 55° NE 20:56:48 30° ESE
Helios 1A 3.4 20:53:58 36° ESE 20:55:00 44° ENE 20:58:59 10° N
SJ-11-01 4.2 20:53:27 22° SSE 20:56:28 76° ENE 21:01:12 10° NNW
SL-8 Rocket 4.5 20:55:54 27° SE 20:58:14 36° E 21:03:47 10° NNE
Cosmos 540 Rocket 3.3 20:55:49 10° SSW 21:00:54 76° ESE 21:06:02 10° NNE
Cosmos 1763 Rocket 4.4 20:55:59 10° SW 21:00:59 51° WNW 21:06:05 10° NNE
Terra 3.8 21:03:52 13° NE 21:04:01 13° NE 21:06:15 10° NNE
Cosmos 2084 Rocket 3.8 21:01:17 10° NW 21:04:58 41° NNE 21:05:35 37° ENE
Cosmos 1766 4.3 21:05:05 10° SSW 21:08:53 47° WNW 21:12:42 10° N
Meteor 2-15 4.3 21:08:16 10° N 21:14:20 69° ENE 21:17:16 32° SSE
SL-16 R/B 3.8 21:10:48 10° NNW 21:15:10 22° NE 21:17:02 19° ENE
Cosmos 962 Rocket 4.4 21:09:39 10° S 21:15:59 73° E 21:22:21 10° NNE
Cosmos 1758 3.2 21:16:01 23° S 21:18:28 88° W 21:22:30 10° N
YAOGAN 6 2.6 21:18:13 58° S 21:18:49 76° WSW 21:22:28 10° NNW
USA 267 3.6 21:16:59 23° ENE 21:21:11 59° N 21:27:36 10° WNW
Cosmos 1674 3.3 21:19:07 10° NNW 21:22:48 53° W 21:24:10 33° SSW
COSMOS 2406 3.3 21:18:14 10° SW 21:23:57 78° WNW 21:29:46 10° NNE
NOAA 11 4.1 21:22:54 41° SE 21:24:49 74° ENE 21:30:16 10° NNW
ARGOS 3.4 21:24:15 45° ESE 21:25:19 52° ENE 21:30:34 10° N
Cosmos 1626 4.1 21:22:40 10° NNE 21:24:17 19° NNE 21:24:17 19° NNE
MetOp-A 4.1 21:27:19 49° ESE 21:28:32 63° ENE 21:33:51 10° N
Cosmos 1939 Rocket 3.7 21:27:51 28° SSW 21:29:33 46° W 21:33:22 10° NNW
Cosmos 1076 Rocket 3.6 21:27:09 10° NNW 21:31:31 73° W 21:32:37 48° SSW
SPOT 5 3.4 21:32:35 37° NE 21:32:35 37° NE 21:36:15 10° N
Cosmos 2369 3.8 21:28:06 10° NNW 21:33:46 73° WSW 21:35:47 41° S
Cosmos 2084 4.2 21:30:15 10° WSW 21:34:04 46° NW 21:35:53 26° NNE
Meteor 1-11 4.4 21:28:43 10° N 21:34:25 54° ENE 21:35:18 50° ESE
SPOT 1/Viking Rocket 4.1 21:37:11 40° ENE 21:37:12 40° ENE 21:42:00 10° N
Cosmos 1818 3.7 21:32:04 10° NW 21:37:29 59° NE 21:38:24 52° E
Cosmos 2154 Rocket 4.4 21:31:54 10° SSW 21:38:04 65° WNW 21:44:21 10° N
Spot 1 3.8 21:38:27 85° SSE 21:38:35 90° NW 21:42:44 10° NNW
Cosmos 1733 3.9 21:46:13 49° N 21:46:13 49° N 21:49:09 10° N
Cosmos 783 Rocket 4.4 21:41:09 10° SSW 21:46:22 85° WNW 21:51:37 10° NNE
Cosmos 2058 4.3 21:43:08 10° N 21:45:39 28° NNE 21:45:39 28° NNE
Resurs 01 Rocket 4.0 21:45:07 10° SW 21:48:24 20° W 21:51:44 10° NW
Cosmos 2341 Rocket 4.1 21:42:36 10° SSW 21:48:48 73° WNW 21:55:04 10° N
ERS-1 Rocket 2.9 21:51:53 70° S 21:52:28 84° WSW 21:57:33 10° NNW
Cosmos 1408 Rocket 3.6 21:50:04 10° NNW 21:54:12 72° WNW 21:54:12 72° WNW
Cosmos 2360 4.2 21:50:22 10° NNW 21:56:03 62° NE 21:56:25 60° ENE
Cosmos 292 Rocket 3.9 21:58:27 30° SW 22:00:49 72° WNW 22:05:43 10° NNE
Cosmos 1470 3.6 22:01:58 48° NW 22:01:58 48° NW 22:05:13 10° N
Cosmos 2082 Rocket 3.8 22:12:37 23° NE 22:12:37 23° NE 22:14:43 10° NE
Cosmos 1959 Rocket 4.4 22:07:48 55° S 22:09:21 90° WNW 22:15:41 10° N
H-2A R/B 2.1 22:10:59 69° NNE 22:10:59 69° NNE 22:15:34 10° NNW
Cosmos 1953 4.1 22:09:46 21° WSW 22:11:38 31° WNW 22:15:18 10° N
Cosmos 2366 rocket 3.9 22:13:29 63° S 22:14:37 89° E 22:20:57 10° N
Cosmos-2242 4.3 22:17:19 35° N 22:17:19 35° N 22:19:54 10° N
Cosmos 2218 Rocket 4.0 22:15:24 52° SSW 22:17:01 81° W 22:23:16 10° N
Cosmos 2285 Rocket 3.9 22:15:27 37° SSW 22:18:16 87° WNW 22:24:46 10° NNE
Cosmos 2151 4.3 22:16:12 10° N 22:18:52 37° N 22:18:52 37° N
Cosmos 2322 Rocket 2.9 22:17:49 10° NNW 22:22:47 43° NE 22:22:47 43° NE
SL-08 R/B 4.4 22:23:04 66° SSW 22:24:01 83° W 22:30:20 10° N
Helios 1B rocket 4.0 22:24:58 10° N 22:27:22 32° N 22:27:22 32° N
Cosmos 2360 Rocket 3.5 22:27:39 10° NNW 22:32:19 29° NE 22:32:19 29° NE
Cosmos 1697 Rocket 3.3 22:27:46 10° NW 22:33:13 48° WSW 22:33:18 48° WSW
Iridium 4 Rocket 4.2 22:35:16 45° NNW 22:35:16 45° NNW 22:38:50 10° N
Cosmos 1980 Rocket 2.4 22:28:48 10° NNW 22:33:57 68° WNW 22:33:57 68° WNW
ATLAS 2AS CENTAUR R/B 3.5 22:28:41 10° NW 22:36:18 48° WSW 22:37:50 43° SSW
Cosmos 1727 Rocket 4.5 22:32:31 10° NNW 22:38:39 56° W 22:39:42 50° SW
Terra 3.0 22:42:45 37° N 22:42:45 37° N 22:45:41 10° N
COSMOS 2428 4.4 22:43:48 10° NNW 22:48:13 22° NE 22:48:26 22° NE
NOSS 3-4 (A) 3.6 22:41:47 10° NW 22:48:41 82° NE 22:48:42 82° NE
NOSS 3-4 (C) 3.6 22:41:53 10° NW 22:48:47 82° NE 22:48:48 82° NE
Cosmos 2333 Rocket 4.2 22:51:02 10° NNW 22:54:50 18° NNE 22:55:52 17° NE
SL-16 R/B 2.8 22:54:34 10° NNW 22:58:53 52° NNW 22:58:53 52° NNW
USA 267 3.2 23:04:20 78° NNW 23:04:20 78° NNW 23:10:33 10° WNW
Cosmos 2123 Rocket 4.4 23:03:55 10° N 23:08:45 56° N 23:08:45 56° N
H-2A R/B 4.3 23:13:03 23° N 23:13:03 23° N 23:14:47 10° N
Cosmos 2237 Rocket 4.2 23:27:20 10° NNW 23:31:25 19° NNE 23:31:47 19° NE
Cosmos 1833 Rocket 4.0 23:34:54 37° N 23:34:54 37° N 23:38:41 10° NNE
Cosmos 2219 Rocket 3.9 23:33:53 10° NNW 23:37:39 26° NNE 23:37:39 26° NNE
H-2A R/B 4.3 23:51:37 16° WNW 23:51:37 16° WNW 23:53:54 10° NW
Cosmos 2082 Rocket 3.6 23:54:24 35° NNW 23:54:24 35° NNW 23:58:48 10° NNE
